Phoenix, AZ

12:45 PM MST on August 25, 2016 (GMT -0700)
Phoenix Sky Harbor International

Weather History for KPHX - January, 2014

Change the Weather History Date:

Saturday, January 18, 2014

  Actual Average Record
Temperature  
Mean Temperature 61 °F 57 °F  
Max Temperature 75 °F 68 °F 80 °F (1971)
Min Temperature 47 °F 46 °F 27 °F (1915)
Degree Days  
Heating Degree Days 4 8  
Month to date heating degree days 127 167  
Since 1 July heating degree days 444 568  
Cooling Degree Days 0 0  
Month to date cooling degree days 0 0  
Year to date cooling degree days 0 0  
Growing Degree Days 10 (Base 50)    
Moisture  
Dew Point 23 °F    
Average Humidity 27    
Maximum Humidity 42    
Minimum Humidity 12    
Precipitation  
Precipitation 0.00 in 0.03 in 0.51 in (1980)
Month to date precipitation 0.00 0.55  
Year to date precipitation 0.00 0.55  
Snow  
Snow 0.00 in - - ()
Month to date snowfall 0.0  
Year to date snowfall 0.0  
Since 1 July snowfall 0.0  
Snow Depth 0.00 in    
Sea Level Pressure  
Sea Level Pressure 30.06 in    
Wind  
Wind Speed 5 mph (ESE)    
Max Wind Speed 10 mph    
Max Gust Speed 14 mph    
Visibility 10 miles    
Events      
T = Trace of Precipitation, MM = Missing Value Source: NWS Daily Summary

Daily Weather History Graph

Daily Weather History Graph

Search for Another Location

Airport or City:

Trip Planner

Search our weather history database for the weather conditions in past years. The results will help you decide how hot, cold, wet, or windy it might be!

Date:

Astronomy

Jan. 18, 2014 Rise Set
Actual Time 7:31 AM MST 5:46 PM MST
Civil Twilight 7:04 AM MST 6:12 PM MST
Nautical Twilight 6:34 AM MST 6:43 PM MST
Astronomical Twilight 6:04 AM MST 7:13 PM MST
Moon 8:21 PM MST (1/18) 8:41 AM MST (1/18)
Length of Visible Light 11h 08m
Length of Day
10h 15m
Waning Gibbous, 94% of the Moon is Illuminated
Jan 18
Waning Gibbous
Jan 23
Last Quarter
Jan 30
New
Feb 6
First Quarter
Feb 14
Full

Hourly Weather History & Observations

Time (MST) Temp. Dew Point Humidity Pressure Visibility Wind Dir Wind Speed Gust Speed Precip Events Conditions
12:51 AM 55.0 °F 26.1 °F 33% 30.04 in 10.0 mi East 4.6 mph - N/A   Clear
1:51 AM 54.0 °F 26.1 °F 34% 30.04 in 10.0 mi East 3.5 mph - N/A   Clear
2:51 AM 53.1 °F 25.0 °F 34% 30.04 in 10.0 mi East 5.8 mph - N/A   Clear
3:51 AM 50.0 °F 26.1 °F 39% 30.04 in 10.0 mi East 8.1 mph - N/A   Clear
4:51 AM 48.0 °F 26.1 °F 42% 30.05 in 10.0 mi East 8.1 mph - N/A   Clear
5:51 AM 50.0 °F 25.0 °F 38% 30.06 in 10.0 mi East 5.8 mph - N/A   Clear
6:51 AM 48.9 °F 21.9 °F 35% 30.07 in 10.0 mi ENE 8.1 mph - N/A   Partly Cloudy
7:51 AM 48.0 °F 23.0 °F 37% 30.08 in 10.0 mi East 9.2 mph - N/A   Partly Cloudy
8:51 AM 54.0 °F 21.0 °F 28% 30.09 in 10.0 mi SE 9.2 mph - N/A   Partly Cloudy
9:51 AM 59.0 °F 21.0 °F 23% 30.12 in 10.0 mi SE 3.5 mph - N/A   Partly Cloudy
10:51 AM 64.0 °F 21.9 °F 20% 30.12 in 10.0 mi SE 4.6 mph - N/A   Partly Cloudy
11:51 AM 68.0 °F 19.0 °F 15% 30.10 in 10.0 mi Variable 4.6 mph - N/A   Partly Cloudy
12:51 PM 73.0 °F 19.9 °F 14% 30.06 in 10.0 mi South 5.8 mph - N/A   Partly Cloudy
1:51 PM 72.0 °F 21.0 °F 15% 30.03 in 10.0 mi West 3.5 mph - N/A   Partly Cloudy
2:51 PM 73.9 °F 19.9 °F 13% 30.02 in 10.0 mi Calm Calm - N/A   Partly Cloudy
3:51 PM 73.9 °F 19.0 °F 13% 30.01 in 10.0 mi Variable 4.6 mph - N/A   Partly Cloudy
4:51 PM 73.9 °F 18.0 °F 12% 30.01 in 10.0 mi NW 6.9 mph - N/A   Partly Cloudy
5:51 PM 72.0 °F 19.0 °F 13% 30.01 in 10.0 mi WSW 5.8 mph - N/A   Partly Cloudy
6:51 PM 64.9 °F 24.1 °F 21% 30.03 in 10.0 mi WSW 5.8 mph - N/A   Clear
7:51 PM 64.0 °F 25.0 °F 23% 30.04 in 10.0 mi Calm Calm - N/A   Clear
8:51 PM 64.9 °F 24.1 °F 21% 30.05 in 10.0 mi NW 3.5 mph - N/A   Partly Cloudy
9:51 PM 57.0 °F 27.0 °F 32% 30.07 in 10.0 mi Calm Calm - N/A   Partly Cloudy
10:51 PM 55.9 °F 28.0 °F 34% 30.08 in 10.0 mi ESE 4.6 mph - N/A   Scattered Clouds
11:51 PM 53.1 °F 30.0 °F 41% 30.07 in 10.0 mi SSW 4.6 mph - N/A   Partly Cloudy